Notices

What's New in latest Release from April 7th, 2021:

- Updated Glossary, including Speed of Maximum Gust, and Total Hourly Precipitation

- Updated national and regional climate services offices contacts and prices information

- Addition of station inventory lists for 1981-2010, 1971-2000, and 1961-1990 Normals.

If you haven't already, please take our survey and provide feedback about our website: https://eccc.sondage-survey.ca/f/LanguageSelection.aspx?s=442ca660-fcf1-47c0-95a9-59707d6fd709

Hourly Data Report for September 04, 2003

TORONTO CITY
ONTARIO

43°40'00.000" N
79°24'00.000" W
112.50 m
6158355
71508
XTO

Download Data

Hourly Data (September 2003)
Hourly Data Report for September 4, 2003
TIME
LST
Temp Definition
°C
Dew Point Definition
°C
Rel Hum Definition
%
Precip. Amount Definition
mm

Wind Dir Definition
10's deg

Wind Spd Definition
km/h
Visibility Definition
km
Stn Press Definition
kPa
Hmdx Definition


Wind Chill Definition


Weather Definition


00:00 20.6 17.5 82   LegendMM LegendMM LegendMM 99.52 26   LegendNANA
01:00 20.5 18.1 86   LegendMM LegendMM LegendMM 99.52 27   LegendNANA
02:00 19.3 17.3 88   LegendMM LegendMM LegendMM 99.49     LegendNANA
03:00 18.0 16.6 92   LegendMM LegendMM LegendMM 99.49     LegendNANA
04:00 18.6 15.7 83   LegendMM LegendMM LegendMM 99.47     LegendNANA
05:00 17.5 12.5 72   LegendMM LegendMM LegendMM 99.52     LegendNANA
06:00 16.7 11.8 73   LegendMM LegendMM LegendMM 99.60     LegendNANA
07:00 16.8 11.4 70   LegendMM LegendMM LegendMM 99.67     LegendNANA
08:00 17.7 11.0 65   LegendMM LegendMM LegendMM 99.69     LegendNANA
09:00 19.4 11.0 58   LegendMM LegendMM LegendMM 99.71     LegendNANA
10:00 21.6 10.7 50   LegendMM LegendMM LegendMM 99.69     LegendNANA
11:00 22.4 11.0 48   LegendMM LegendMM LegendMM 99.69     LegendNANA
12:00 22.6 11.0 48   LegendMM LegendMM LegendMM 99.67     LegendNANA
13:00 23.3 10.9 46   LegendMM LegendMM LegendMM 99.68 25   LegendNANA
14:00 22.0 11.2 50   LegendMM LegendMM LegendMM 99.65     LegendNANA
15:00 22.4 11.6 50   LegendMM LegendMM LegendMM 99.67     LegendNANA
16:00 21.5 9.9 48   LegendMM LegendMM LegendMM 99.70     LegendNANA
17:00 20.4 10.7 54   LegendMM LegendMM LegendMM 99.74     LegendNANA
18:00 19.5 11.1 58   LegendMM LegendMM LegendMM 99.82     LegendNANA
19:00 18.0 10.8 63   LegendMM LegendMM LegendMM 99.91     LegendNANA
20:00 16.8 11.4 70   LegendMM LegendMM LegendMM 99.98     LegendNANA
21:00 15.5 12.3 81   LegendMM LegendMM LegendMM 100.05     LegendNANA
22:00 15.7 12.1 79   LegendMM LegendMM LegendMM 100.06     LegendNANA
23:00 15.2 12.4 83   LegendMM LegendMM LegendMM 100.10     LegendNANA

Notes on Data Quality.

Legend

  • E = Estimated
  • M = Missing
  • NA = Not Available*
  • [empty] = Indicates an unobserved value
Date modified: